Home   Weather   Oakville   Past weeks
Flag for Canada

Past Weather in Oakville, Ontario, Canada — Yesterday and Last 2 Weeks

Now
70 °F

Mild.


Feels Like: 70 °F
Forecast: 73 / 65 °F
Wind: 2 mph from Northwest

Location: Burlington Piers

Current Time: Jul 22, 2019 at 10:08:19 am

Latest Report: Jul 22, 2019 at 9:00 am


Visibility: N/A

Pressure: 29.88 "Hg

Humidity: 63%

Dew Point: 56 °F

Location of OakvilleLocation

Past Weather in Oakville — Graph

°F

Oakville Temperature Yesterday

Maximum temperature yesterday: 83 °F (at 6:00 pm)
Minimum temperature yesterday: 72 °F (at 6:00 am)
Average temperature yesterday: 77 °F

High & Low Weather Summary for the Past Weeks

 TemperatureHumidityPressure
High90 °F (Jul 20, 4:00 pm)100% (Jul 17, 7:00 pm)30.12 "Hg (Jul 17, 7:00 pm)
Low64 °F (Jul 15, 8:00 am)35% (Jul 21, 7:00 pm)29.70 "Hg (Jul 11, 5:00 pm)
Average73 °F73%29.92 "Hg
* Reported Jul 7 8:00 am — Jul 22 8:00 am, Oakville. Weather by CustomWeather, © 2019

Note: Actual official high and low records may vary slightly from our data, if they occured in-between our weather recording intervals... More about our weather records

Advertising

Oakville Weather History for the Previous 24 Hours

Scroll right to see more
 ConditionsComfort  
Time TempWeatherWind HumidityBarometerVisibility
8:00 am
Mon, Jul 22
68 °FMild.1 mph74%29.89 "HgN/A
7:00 am66 °FMild.2 mph71%29.88 "HgN/A
6:00 am68 °FMild.1 mph70%29.88 "HgN/A
5:00 am67 °FMild.No wind66%29.87 "HgN/A
4:00 am68 °FMild.No wind64%29.89 "HgN/A
3:00 am69 °FMild.2 mph64%29.90 "HgN/A
2:00 am71 °FMild.5 mph52%29.89 "HgN/A
1:00 am72 °FMild.6 mph51%29.91 "HgN/A
12:00 am73 °FMild.8 mph49%29.88 "HgN/A
11:00 pm
Sun, Jul 21
75 °FMild.10 mph45%29.90 "HgN/A
10:00 pm76 °FMild.12 mph43%29.90 "HgN/A
9:00 pm76 °FMild.6 mph44%29.90 "HgN/A
8:00 pm80 °FPleasantly warm.9 mph38%29.90 "HgN/A
7:00 pm82 °FPleasantly warm.10 mph35%29.88 "HgN/A
6:00 pm83 °FPleasantly warm.8 mph36%29.86 "HgN/A
5:00 pm83 °FPleasantly warm.7 mph39%29.87 "HgN/A
4:00 pm82 °FWarm.6 mph46%29.87 "HgN/A
3:00 pm81 °FWarm.6 mph44%29.87 "HgN/A
2:00 pm79 °FWarm.7 mph52%29.88 "HgN/A
1:00 pm78 °FWarm.8 mph44%29.88 "HgN/A
12:00 pm77 °FMild.7 mph60%29.89 "HgN/A
11:00 am74 °FMild.7 mph60%29.87 "HgN/A
10:00 am74 °FMild.2 mph70%29.85 "HgN/A
Weather by CustomWeather, © 2019

See weather overview